| time (UTC) | temp F | wind direction | speed MPH | gust MPH | rain 1hr in | rain 24hr in | rain mn in | humidity % | barometer mb |
| 20260505073530 | 53 | 0.0 | 0.0 | 0.00 | 0.01 | 0.01 | 99 | ||
| 20260505073520 | 53 | 278 | 3.0 | 7.0 | 0.00 | 0.00 | 0.00 | 76 | |
| 20260505072527 | 53 | 270 | 4.0 | 7.0 | 0.00 | 0.00 | 0.00 | 76 | |
| 20260505072519 | 53 | 0.0 | 0.0 | 0.00 | 0.01 | 0.01 | 99 | ||
| 20260505071527 | 54 | 0.0 | 0.0 | 0.00 | 0.01 | 0.01 | 99 | ||
| 20260505071520 | 54 | 280 | 4.0 | 9.0 | 0.00 | 0.00 | 0.00 | 74 | |
| 20260505070535 | 55 | 0.0 | 0.0 | 0.00 | 0.01 | 0.01 | 99 | ||
| 20260505070528 | 54 | 290 | 5.0 | 9.0 | 0.00 | 0.00 | 0.00 | 73 | |
| 20260505065524 | 56 | 0.0 | 0.0 | 0.00 | 0.01 | 0.01 | 99 | ||
| 20260505065520 | 55 | 282 | 4.0 | 8.0 | 0.00 | 0.00 | 0.00 | 72 | |
| 20260505064532 | 58 | 0.0 | 0.0 | 0.00 | 0.01 | 0.01 | 99 | ||
| 20260505064528 | 55 | 269 | 3.0 | 6.0 | 0.00 | 0.00 | 0.00 | 70 | |
| 20260505063524 | 56 | 277 | 4.0 | 7.0 | 0.00 | 0.00 | 0.00 | 69 | |
| 20260505062528 | 56 | 277 | 3.0 | 7.0 | 0.00 | 0.00 | 0.00 | 68 | |
| 20260505061522 | 58 | 274 | 4.0 | 8.0 | 0.00 | 0.00 | 0.00 | 65 | |
| 20260505060528 | 59 | 277 | 3.0 | 7.0 | 0.00 | 0.00 | 0.00 | 64 | |
| 20260505060526 | 61 | 0.0 | 0.0 | 0.00 | 0.02 | 0.01 | 99 | ||
| 20260505055535 | 62 | 0.0 | 0.0 | 0.00 | 0.02 | 0.01 | 99 | ||
| 20260505055520 | 59 | 277 | 2.0 | 6.0 | 0.00 | 0.00 | 0.00 | 63 | |
| 20260505054527 | 59 | 273 | 5.0 | 9.0 | 0.00 | 0.00 | 0.00 | 63 | |
| 20260505054523 | 63 | 0.0 | 0.0 | 0.00 | 0.02 | 0.01 | 99 | ||
| 20260505053532 | 63 | 0.0 | 0.0 | 0.00 | 0.04 | 0.01 | 99 | ||
| 20260505053519 | 59 | 276 | 3.0 | 7.0 | 0.00 | 0.00 | 0.00 | 63 | |
| 20260505052527 | 60 | 276 | 2.0 | 6.0 | 0.00 | 0.00 | 0.00 | 61 | |
| 20260505052521 | 63 | 0.0 | 0.0 | 0.00 | 0.05 | 0.01 | 99 | ||
| 20260505051528 | 63 | 0.0 | 0.0 | 0.00 | 0.06 | 0.01 | 99 | ||
| 20260505051520 | 60 | 270 | 2.0 | 5.0 | 0.00 | 0.00 | 0.00 | 61 | |
| 20260505050537 | 63 | 0.0 | 0.0 | 0.00 | 0.06 | 0.01 | 99 | ||
| 20260505050528 | 60 | 278 | 4.0 | 9.0 | 0.00 | 0.00 | 0.00 | 60 | |
| 20260505041522 | 60 | 260 | 4.0 | 9.0 | 0.00 | 0.00 | 0.00 | 60 | |
| 20260505040530 | 59 | 265 | 3.0 | 7.0 | 0.00 | 0.00 | 0.00 | 60 | |
| 20260505035556 | 63 | 0.0 | 0.0 | 0.00 | 0.07 | 0.01 | 99 | ||
| 20260505035544 | 59 | 281 | 6.0 | 11.0 | 0.00 | 0.00 | 0.00 | 59 | |
| 20260505034528 | 60 | 273 | 4.0 | 10.0 | 0.00 | 0.00 | 0.00 | 58 | |
| 20260505034526 | 64 | 0.0 | 0.0 | 0.00 | 0.07 | 0.01 | 99 | ||
| 20260505033533 | 64 | 0.0 | 0.0 | 0.00 | 0.07 | 0.01 | 99 | ||
| 20260505033521 | 59 | 286 | 4.0 | 8.0 | 0.00 | 0.00 | 0.00 | 60 | |
| 20260505032547 | 59 | 264 | 4.0 | 10.0 | 0.00 | 0.00 | 0.00 | 60 | |
| 20260505032543 | 63 | 0.0 | 0.0 | 0.00 | 0.07 | 0.01 | 99 | ||
| 20260505031550 | 65 | 0.0 | 0.0 | 0.00 | 0.07 | 0.01 | 99 | ||
| 20260505031543 | 60 | 274 | 5.0 | 9.0 | 0.00 | 0.00 | 0.00 | 59 | |
| 20260505030528 | 59 | 271 | 5.0 | 10.0 | 0.00 | 0.00 | 0.00 | 60 | |
| 20260505030521 | 64 | 0.0 | 0.0 | 0.00 | 0.07 | 0.01 | 99 | ||
| 20260505025528 | 64 | 0.0 | 0.0 | 0.00 | 0.07 | 0.01 | 99 | ||
| 20260505025522 | 59 | 281 | 4.0 | 7.0 | 0.00 | 0.00 | 0.00 | 60 | |
| 20260505024536 | 62 | 0.0 | 0.0 | 0.00 | 0.07 | 0.01 | 99 | ||
| 20260505024528 | 58 | 271 | 4.0 | 8.0 | 0.00 | 0.00 | 0.00 | 61 | |
| 20260505023525 | 62 | 0.0 | 0.0 | 0.00 | 0.07 | 0.01 | 99 | ||
| 20260505023520 | 57 | 263 | 6.0 | 11.0 | 0.00 | 0.00 | 0.00 | 63 | |
| 20260505022533 | 62 | 0.0 | 1.0 | 0.00 | 0.07 | 0.01 | 99 | ||
| 20260505022531 | 57 | 277 | 7.0 | 14.0 | 0.00 | 0.00 | 0.00 | 64 | |
| 20260505021524 | 56 | 271 | 6.0 | 11.0 | 0.00 | 0.00 | 0.00 | 63 | |
| 20260505020530 | 62 | 0.0 | 0.0 | 0.00 | 0.07 | 0.01 | 99 | ||
| 20260505020528 | 56 | 262 | 4.0 | 9.0 | 0.00 | 0.00 | 0.00 | 67 | |
| 20260505015541 | 60 | 0.0 | 0.0 | 0.00 | 0.07 | 0.01 | 99 | ||
| 20260505014530 | 60 | 0.0 | 0.0 | 0.00 | 0.07 | 0.01 | 99 | ||
| 20260505014528 | 55 | 277 | 5.0 | 11.0 | 0.00 | 0.00 | 0.00 | 67 | |
| 20260505013536 | 60 | 315 | 0.0 | 1.0 | 0.00 | 0.07 | 0.01 | 99 | |
| 20260505013520 | 55 | 298 | 5.0 | 11.0 | 0.00 | 0.00 | 0.00 | 65 | |
| 20260505012528 | 55 | 270 | 6.0 | 11.0 | 0.00 | 0.00 | 0.00 | 66 | |
| 20260505011552 | 59 | 0.0 | 0.0 | 0.00 | 0.07 | 0.01 | 99 | ||
| 20260505011542 | 56 | 269 | 5.0 | 9.0 | 0.00 | 0.00 | 0.00 | 66 | |
| 20260505010528 | 56 | 286 | 7.0 | 13.0 | 0.00 | 0.00 | 0.00 | 67 | |
| 20260505010522 | 59 | 0.0 | 0.0 | 0.00 | 0.07 | 0.01 | 99 | ||
| 20260505005529 | 59 | 0.0 | 0.0 | 0.00 | 0.07 | 0.01 | 99 | ||
| 20260505005524 | 56 | 268 | 5.0 | 10.0 | 0.00 | 0.00 | 0.00 | 67 | |
| 20260505004529 | 55 | 278 | 5.0 | 10.0 | 0.00 | 0.00 | 0.00 | 69 | |
| 20260505004519 | 59 | 0.0 | 0.0 | 0.00 | 0.07 | 0.01 | 99 | ||
| 20260505003527 | 59 | 0.0 | 0.0 | 0.00 | 0.08 | 0.01 | 99 | ||
| 20260505003521 | 55 | 281 | 5.0 | 10.0 | 0.00 | 0.00 | 0.00 | 70 | |
| 20260505002535 | 59 | 0.0 | 0.0 | 0.00 | 0.08 | 0.01 | 99 | ||
| 20260505002528 | 55 | 283 | 4.0 | 8.0 | 0.00 | 0.00 | 0.00 | 69 | |
| 20260505001524 | 58 | 0.0 | 0.0 | 0.00 | 0.08 | 0.01 | 99 | ||
| 20260505001520 | 55 | 267 | 3.0 | 8.0 | 0.00 | 0.00 | 0.00 | 70 | |
| 20260505000532 | 57 | 0.0 | 0.0 | 0.00 | 0.08 | 0.01 | 99 | ||
| 20260505000528 | 54 | 284 | 4.0 | 9.0 | 0.00 | 0.00 | 0.00 | 72 | |
| 20260504235521 | 58 | 0.0 | 0.0 | 0.00 | 0.08 | 0.01 | 99 | ||
| 20260504234549 | 56 | 0.0 | 0.0 | 0.00 | 0.08 | 0.01 | 99 | ||
| 20260504233538 | 56 | 0.0 | 0.0 | 0.00 | 0.08 | 0.01 | 99 | ||
| 20260504233523 | 54 | 8 | 2.0 | 7.0 | 0.00 | 0.00 | 0.00 | 75 | |
| 20260504232528 | 55 | 0.0 | 0.0 | 0.00 | 0.08 | 0.01 | 99 | ||
| 20260504231534 | 55 | 0.0 | 0.0 | 0.00 | 0.09 | 0.01 | 99 | ||
| 20260504231520 | 52 | 36 | 2.0 | 5.0 | 0.00 | 0.00 | 0.00 | 78 | |
| 20260504230528 | 53 | 23 | 2.0 | 5.0 | 0.00 | 0.00 | 0.00 | 78 | |
| 20260504230524 | 54 | 0.0 | 0.0 | 0.00 | 0.10 | 0.01 | 99 | ||
| 20260504225531 | 53 | 0.0 | 0.0 | 0.00 | 0.11 | 0.01 | 99 | ||
| 20260504225521 | 53 | 340 | 2.0 | 3.0 | 0.00 | 0.00 | 0.00 | 79 | |
| 20260504224528 | 53 | 297 | 1.0 | 3.0 | 0.00 | 0.00 | 0.00 | 79 | |
| 20260504224521 | 53 | 0.0 | 0.0 | 0.00 | 0.12 | 0.01 | 99 | ||
| 20260504223529 | 51 | 0.0 | 0.0 | 0.00 | 0.13 | 0.01 | 99 | ||
| 20260504223520 | 51 | 31 | 1.0 | 5.0 | 0.00 | 0.00 | 0.00 | 82 | |
| 20260504222537 | 51 | 0.0 | 0.0 | 0.00 | 0.13 | 0.01 | 99 | ||
| 20260504222529 | 51 | 10 | 2.0 | 5.0 | 0.00 | 0.00 | 0.00 | 82 | |
| 20260504221526 | 50 | 0.0 | 0.0 | 0.00 | 0.15 | 0.01 | 99 | ||
| 20260504221522 | 51 | 325 | 1.0 | 2.0 | 0.00 | 0.00 | 0.00 | 82 | |
| 20260504220534 | 49 | 0.0 | 0.0 | 0.00 | 0.15 | 0.01 | 99 | ||
| 20260504220528 | 50 | 320 | 1.0 | 2.0 | 0.00 | 0.00 | 0.00 | 85 | |
| 20260504215523 | 47 | 0.0 | 0.0 | 0.00 | 0.15 | 0.01 | 99 | ||
| 20260504215520 | 48 | 317 | 2.0 | 3.0 | 0.00 | 0.00 | 0.00 | 88 | |
| 20260504214532 | 47 | 0.0 | 0.0 | 0.00 | 0.15 | 0.01 | 99 | ||
| 20260504214528 | 47 | 277 | 1.0 | 2.0 | 0.00 | 0.00 | 0.00 | 91 | |
| 20260504213521 | 45 | 0.0 | 0.0 | 0.00 | 0.15 | 0.01 | 99 | ||
| 20260504212530 | 44 | 262 | 2.0 | 2.0 | 0.00 | 0.00 | 0.00 | 96 | |
| 20260504211538 | 44 | 0.0 | 0.0 | 0.00 | 0.15 | 0.01 | 99 | ||
| 20260504211520 | 44 | 243 | 0.0 | 2.0 | 0.00 | 0.00 | 0.00 | 96 | |
| 20260504210528 | 44 | 236 | 1.0 | 1.0 | 0.00 | 0.00 | 0.00 | 97 | |
| 20260504205533 | 43 | 0.0 | 0.0 | 0.00 | 0.15 | 0.01 | 99 | ||
| 20260504205520 | 43 | 0.0 | 0.0 | 0.00 | 0.00 | 0.00 | 96 | ||
| 20260504204528 | 44 | 237 | 1.0 | 2.0 | 0.00 | 0.00 | 0.00 | 97 | |
| 20260504204523 | 44 | 0.0 | 0.0 | 0.00 | 0.15 | 0.01 | 99 | ||
| 20260504203531 | 43 | 0.0 | 0.0 | 0.00 | 0.15 | 0.01 | 99 | ||
| 20260504203520 | 44 | 267 | 2.0 | 5.0 | 0.00 | 0.00 | 0.00 | 97 | |
| 20260504202528 | 44 | 269 | 2.0 | 3.0 | 0.00 | 0.00 | 0.00 | 97 | |
| 20260504202520 | 43 | 0.0 | 0.0 | 0.00 | 0.15 | 0.01 | 99 | ||
| 20260504201609 | 43 | 0.0 | 0.0 | 0.00 | 0.15 | 0.01 | 99 | ||
| 20260504201605 | 43 | 0.0 | 0.0 | 0.00 | 0.00 | 0.00 | 96 | ||
| 20260504200536 | 44 | 0.0 | 0.0 | 0.00 | 0.15 | 0.01 | 99 | ||
| 20260504200530 | 44 | 173 | 1.0 | 2.0 | 0.00 | 0.00 | 0.00 | 96 | |
| 20260504195525 | 44 | 0.0 | 0.0 | 0.00 | 0.15 | 0.01 | 99 | ||
| 20260504195520 | 44 | 261 | 2.0 | 5.0 | 0.00 | 0.00 | 0.00 | 97 | |
| 20260504194533 | 44 | 0.0 | 0.0 | 0.00 | 0.15 | 0.01 | 99 | ||
| 20260504194528 | 44 | 260 | 2.0 | 5.0 | 0.00 | 0.00 | 0.00 | 97 | |
| 20260504193522 | 44 | 270 | 2.0 | 5.0 | 0.00 | 0.00 | 0.00 | 97 | |
| 20260504192531 | 43 | 0.0 | 0.0 | 0.00 | 0.16 | 0.01 | 99 | ||
| 20260504192529 | 43 | 249 | 1.0 | 2.0 | 0.00 | 0.00 | 0.00 | 97 | |
| 20260504191524 | 43 | 0.0 | 0.0 | 0.00 | 0.16 | 0.01 | 99 | ||
| 20260504190529 | 44 | 0.0 | 0.0 | 0.00 | 0.16 | 0.01 | 99 | ||
| 20260504185555 | 44 | 0.0 | 0.0 | 0.00 | 0.16 | 0.01 | 99 | ||
| 20260504185543 | 44 | 0.0 | 0.0 | 0.00 | 0.00 | 0.00 | 95 | ||
| 20260504184528 | 45 | 163 | 0.0 | 2.0 | 0.00 | 0.00 | 0.00 | 94 | |
| 20260504184526 | 45 | 0.0 | 0.0 | 0.00 | 0.16 | 0.01 | 99 | ||
| 20260504183532 | 45 | 0.0 | 0.0 | 0.00 | 0.16 | 0.01 | 99 | ||
| 20260504183524 | 46 | 233 | 1.0 | 2.0 | 0.00 | 0.00 | 0.00 | 93 | |
| 20260504182528 | 46 | 285 | 3.0 | 8.0 | 0.00 | 0.00 | 0.00 | 94 | |
| 20260504182522 | 45 | 0.0 | 0.0 | 0.00 | 0.16 | 0.01 | 99 | ||
| 20260504181529 | 45 | 0.0 | 0.0 | 0.00 | 0.16 | 0.01 | 99 | ||
| 20260504181520 | 46 | 271 | 4.0 | 8.0 | 0.00 | 0.00 | 0.00 | 94 | |
| 20260504180528 | 45 | 281 | 4.0 | 8.0 | 0.00 | 0.00 | 0.00 | 95 | |
| 20260504180521 | 45 | 0.0 | 0.0 | 0.00 | 0.17 | 0.01 | 99 | ||
| 20260504175547 | 45 | 0.0 | 0.0 | 0.00 | 0.17 | 0.01 | 99 | ||
| 20260504175541 | 46 | 269 | 3.0 | 6.0 | 0.00 | 0.00 | 0.00 | 95 | |
| 20260504174535 | 45 | 0.0 | 0.0 | 0.00 | 0.18 | 0.01 | 99 | ||
| 20260504174528 | 46 | 266 | 3.0 | 7.0 | 0.00 | 0.00 | 0.00 | 95 | |
| 20260504173524 | 45 | 0.0 | 0.0 | 0.00 | 0.19 | 0.01 | 99 | ||
| 20260504173521 | 46 | 271 | 3.0 | 7.0 | 0.00 | 0.00 | 0.00 | 94 | |
| 20260504172533 | 45 | 0.0 | 0.0 | 0.00 | 0.20 | 0.01 | 99 | ||
| 20260504171542 | 46 | 259 | 2.0 | 3.0 | 0.00 | 0.00 | 0.00 | 94 | |
| 20260504170549 | 45 | 0.0 | 0.0 | 0.00 | 0.20 | 0.01 | 99 | ||
| 20260504150531 | 46 | 0.0 | 0.0 | 0.01 | 0.26 | 0.01 | 99 | ||
| 20260504150528 | 46 | 278 | 3.0 | 6.0 | 0.00 | 0.00 | 0.00 | 95 | |
| 20260504140529 | 46 | 283 | 3.0 | 7.0 | 0.00 | 0.00 | 0.00 | 96 | |
| 20260504140524 | 46 | 0.0 | 0.0 | 0.00 | 0.31 | 0.00 | 99 | ||
| 20260504130532 | 46 | 0.0 | 0.0 | 0.00 | 0.31 | 0.31 | 99 | ||
| 20260504130528 | 46 | 254 | 2.0 | 3.0 | 0.00 | 0.00 | 0.00 | 96 | |
| 20260504110529 | 47 | 264 | 2.0 | 3.0 | 0.00 | 0.00 | 0.00 | 97 | |
| 20260504100529 | 48 | 0.0 | 0.0 | 0.00 | 0.31 | 0.31 | 99 | ||
| 20260504081521 | 51 | 250 | 1.0 | 2.0 | 0.00 | 0.00 | 0.00 | 98 | |
| 20260504081025 | 51 | 0.0 | 0.0 | 0.00 | 0.31 | 0.31 | 99 | ||
| 20260504080529 | 51 | 276 | 2.0 | 5.0 | 0.00 | 0.00 | 0.00 | 98 |